Weather Roundup
Issued by NWS

Home | Current Version | Previous Version | Text Only | Print | Product List | Glossary On
Versions: 1 2 3 4 5 6 7 8 9 10 11 12 13 14 15 16 17 18 19 20 21 22 23 24 25 26 27 28 29 30 31 32 33 34 35 36 37 38 39 40 41 42 43 44 45 46 47 48 49 50
000
NZUS93 KARX 041010
HRRWXR

CURRENT HOURLY OBSERVATIONS ACROSS
MUCH OF THE UPPER MISSISSIPPI VALLEY
NATIONAL WEATHER SERVICE LA CROSSE WI
500 AM CDT SAT APR 04 2020


...SOUTHEAST MINNESOTA...


CITY           SKY/WX    TMP DP  RH WIND       PRES   REMARKS
ROCHESTER      CLOUDY    23  19  85 NW14      30.21S WCI  11
ROCHESTER/MAYO CLOUDY    25  21  85 NW9       30.23S WCI  15
WINONA         CLOUDY    28  25  86 N7        30.24S WCI  21
AUSTIN         CLOUDY    25  21  86 N12       30.23R WCI  14
ALBERT LEA     CLOUDY    21  21 100 N8        30.23S WCI  12
DODGE CENTER   MOCLDY    21  18  86 NW10      30.22S WCI  10
PRESTON        CLOUDY    24  21  89 N8        30.21R WCI  15
OWATONNA         N/A     21  19  93 NW10      30.24S WCI  10
FARIBAULT        N/A     23  19  86 NW6       30.26R WCI  16
$$

...ELSEWHERE IN MINNESOTA...


CITY           SKY/WX    TMP DP  RH WIND       PRES   REMARKS
MINNEAPOLIS    FAIR      21  15  78 NW7       30.27R WCI  12
INTNL FALLS    FAIR       7   3  84 SW5       30.22R WCI  -2
DULUTH         MOCLDY    16  11  80 NW13G24   30.18R WCI   2
RED WING       CLOUDY    25  19  80 NW6       30.25R WCI  18
REDWOOD FALLS  FAIR      16  12  84 W5        30.28S WCI   9
MANKATO        FAIR      18  16  92 NW6       30.28R WCI  10
WORTHINGTON    FAIR      16  15  96 N3        30.26S
FAIRMONT       FAIR      18  16  92 NW8       30.27F WCI   8
$$

...SOUTHWEST WISCONSIN...


CITY           SKY/WX    TMP DP  RH WIND       PRES   REMARKS
LA CROSSE      CLOUDY    28  21  75 NW16      30.22R WCI  16
PRAIRIE DU CHI CLOUDY    30  24  80 NW9G16    30.20S WCI  21
BOSCOBEL       CLOUDY    31  25  78 NW10      30.19R WCI  22
LONE ROCK      CLOUDY    30  26  85 NW13      30.17R WCI  20
PLATTEVILLE    CLOUDY    30  30 100 NW14      30.14S WCI  20
FORT MC COY    CLOUDY    27  24  91 NW7       30.20S WCI  19
CAMP DOUGLAS   CLOUDY    27  27  99 NW15G24   30.16R WCI  15
MAUSTON-NEW LI CLOUDY    28  25  88 NW15G24   30.15S WCI  17
VIROQUA        CLOUDY    26  26 100 CALM      30.16S
WIS DELLS      CLOUDY    27  25  94 NW10G20   30.14R WCI  17
$$

...ELSEWHERE IN WISCONSIN...


CITY           SKY/WX    TMP DP  RH WIND       PRES   REMARKS
MILWAUKEE      LGT RAIN  38  33  82 NW15G25   30.03R WCI  29
MADISON        CLOUDY    30  27  88 NW13G23   30.11R WCI  20
GREEN BAY      CLOUDY    39  35  86 NW14      30.04R WCI  31
EAU CLAIRE     FAIR      23  17  78 NW9       30.21S WCI  13
BLACK RVR FLS  CLOUDY    26  23  86 NW9       30.20R WCI  17
MEDFORD        CLOUDY    22  21  96 CALM      30.13S
WAUSAU         CLOUDY    27  23  85 NW12G21   30.10R WCI  17
WIS RAPIDS     CLOUDY    28  24  85 NW12      30.14R WCI  18
MARSHFIELD     CLOUDY    26  22  84 NW18G26   30.13R WCI  13
RICE LAKE      FAIR      16  16  97 CALM      30.23S
$$

...NORTHEAST IOWA...


CITY           SKY/WX    TMP DP  RH WIND       PRES   REMARKS
WATERLOO       CLOUDY    29  24  82 N13       30.22R WCI  19
DUBUQUE        CLOUDY    29  27  92 N17G23    30.15R WCI  17
DECORAH        CLOUDY    27  25  93 N14       30.18S WCI  15
MASON CITY     CLOUDY    22  19  89 NW16      30.25R WCI   8
CHARLES CITY   CLOUDY    27  25  93 N12       30.22F WCI  16
OELWEIN        CLOUDY    27  27 100 NW15      30.20S WCI  15
$$

...ELSEWHERE IN IOWA...


CITY           SKY/WX    TMP DP  RH WIND       PRES   REMARKS
DES MOINES     CLOUDY    27  23  85 N10       30.25S WCI  17
IOWA CITY      CLOUDY    31  25  78 NW10G25   30.22R WCI  22
FORT DODGE     FAIR      22  20  92 N5        30.26F WCI  16
MARSHALLTOWN   CLOUDY    26  25  96 N17       30.23S WCI  13
CEDAR RAPIDS   LGT RAIN  27  25  92 NW15      30.19S WCI  15
$$

...NORTHERN ILLINOIS...


CITY           SKY/WX    TMP DP  RH WIND       PRES   REMARKS
CHICAGO-OHARE  RAIN      43  39  86 NW12      30.03R
CHICAGO-MIDWAY LGT RAIN  47  45  93 NW9       30.03R
MOLINE         CLOUDY    32  27  81 NW18      30.16R WCI  20
ROCKFORD       CLOUDY    36  33  89 NW15      30.11R WCI  27
PEORIA         LGT RAIN  34  31  88 NW7       30.12S WCI  28
$$

NOTE: "FAIR" INDICATES FEW OR NO CLOUDS BELOW 12,000 FEET WITH NO
SIGNIFICANT WEATHER AND/OR OBSTRUCTIONS TO VISIBILITY. WIND
SPEEDS ARE IN MILES-PER-HOUR.




USA.gov is the U.S. government's official web portal to all federal, state and local government web resources and services.